Location: Gro�wechsungen
(51.4926°N, 10.6901°E)
Time: 08:38:51
(UTC+00:00)

SPOT 3 Rocket - Pass Details

Date: 30 January 2021
Orbit: 780 x 794 km, 98.7° (Epoch: 24 February)

Event Time Altitude Azimuth Distance (km) Brightness Sun altitude
Exits shadow 20:03:33 18° 337° (NNW) 1,833 5.8 -37.0°
Drops below altitude 10° 20:04:54 10° 340° (NNW) 2,352 6.4 -37.2°
Sets 20:07:15 0° 343° (NNW) 3,286 7.2 -37.5°
